| time (UTC) | temp F | wind direction | speed MPH | gust MPH | rain 1hr in | rain 24hr in | rain mn in | humidity % | barometer mb |
| 20260506181801 | 55 | 20 | 3.0 | 0.0 | 0.00 | 0.00 | 0.00 | 87 | |
| 20260506171728 | 57 | 0 | 0.0 | 0.0 | 0.00 | 0.00 | 0.00 | 76 | |
| 20260506161928 | 57 | 160 | 9.0 | 0.0 | 0.00 | 0.00 | 0.00 | 67 | |
| 20260506151729 | 61 | 220 | 5.0 | 0.0 | 0.00 | 0.00 | 0.00 | 59 | |
| 20260506141729 | 61 | 220 | 8.0 | 0.0 | 0.00 | 0.00 | 0.00 | 55 | |
| 20260506131729 | 59 | 200 | 13.0 | 0.0 | 0.00 | 0.00 | 0.00 | 54 | |
| 20260506121728 | 59 | 200 | 14.0 | 0.0 | 0.00 | 0.00 | 0.00 | 62 | |
| 20260506111729 | 55 | 230 | 10.0 | 17.0 | 0.00 | 0.00 | 0.00 | 71 | |
| 20260506101929 | 57 | 200 | 16.0 | 0.0 | 0.00 | 0.00 | 0.00 | 71 | |
| 20260506091729 | 55 | 190 | 16.0 | 25.0 | 0.00 | 0.00 | 0.00 | 76 | |
| 20260506081728 | 54 | 190 | 17.0 | 0.0 | 0.00 | 0.00 | 0.00 | 81 | |
| 20260506071729 | 54 | 200 | 17.0 | 25.0 | 0.00 | 0.00 | 0.00 | 81 | |
| 20260506061729 | 50 | 190 | 16.0 | 0.0 | 0.00 | 0.00 | 0.00 | 93 | |
| 20260506041928 | 46 | 200 | 14.0 | 0.0 | 0.00 | 0.00 | 0.00 | 99 | |
| 20260506031729 | 46 | 200 | 12.0 | 0.0 | 0.00 | 0.00 | 0.00 | 99 | |
| 20260506021729 | 45 | 190 | 12.0 | 0.0 | 0.00 | 0.00 | 0.00 | 99 | |
| 20260506011829 | 46 | 190 | 13.0 | 0.0 | 0.00 | 0.00 | 0.00 | 93 | |
| 20260506001728 | 46 | 260 | 8.0 | 0.0 | 0.00 | 0.00 | 0.00 | 99 | |
| 20260505231728 | 48 | 290 | 8.0 | 0.0 | 0.00 | 0.00 | 0.00 | 93 | |
| 20260505221727 | 48 | 220 | 14.0 | 0.0 | 0.00 | 0.00 | 0.00 | 93 | |
| 20260505211745 | 48 | 220 | 16.0 | 38.0 | 0.00 | 0.00 | 0.00 | 93 | |
| 20260505201744 | 52 | 10 | 12.0 | 0.0 | 0.00 | 0.00 | 0.00 | 99 | |
| 20260505191745 | 52 | 10 | 13.0 | 0.0 | 0.00 | 0.00 | 0.00 | 99 |